Presure
157 160 157 156 151 142 139 144 145 90 143 141 145 144 135 149 151 153 153 176 165 143 169 172 150 137 156 153 158 178 183 163 181 159 172 146 167 179 151 146 172 133 132
158 153 148 143 142 142 147 128 89 134 98 154 127 156 156 156 159 161 161 154 143 138 152 176 166 170 171 177 174 158 153 168 182 167 114 163 177 141 158 180 160 173 174
116 152 148 149 149 156 89 88 93 134 128 149 147 150 159 155 153 173 137 177 165 173 169 159 172 172 171 175 167 152 177 162 154 186 184 166 140 167 147 177 159 159 153
118 159 145 145 157 157 146 138 151 151 152 157 175 142 144 141 144 163 166 174 171 160 171 181 183 159 179 151 149 191 149 183 185 151 154 126 183 171 173 178 181 188 190
152 152 153 155 153 150 152 151 183 180 135 174 168 172 175 156 170 161 189 183 182 178 181 165 179 128 177 173 156 135 127 138 169 148 178 168 191 181 177 178 182 186 183
114 155 151 153 143 170 150 156 161 175 138 169 169 185 177 159 175 166 167 165 178 179 159 116 179 153 134 85 182 181 181 180 110 102 183 182 184 184 194 191 182 189 188
156 161 133 168 152 140 156 167 173 115 122 162 180 181 169 180 186 196 190 153 156 187 175 194 192 184 179 176 209 186 97 152 194 100 153 212 176 168 192 191 180 175 185
155 161 157 162 164 129 177 177 179 140 157 180 162 175 183 140 160 180 174 150 146 179 219 106 203 223 163 69 160 218 200 205 205 197 184 229 177 221 216 205 210 208 202
170 157 113 163 167 154 164 163 167 160 118 180 178 189 180 182 144 180 154 168 170 166 189 148 171 218 194 220 208 193 193 176 195 222 213 245 134 238 188 229 211 201 199
139 132 155 166 172 153 179 177 160 175 172 134 176 142 153 197 170 183 189 88 207 160 186 220 121 108 144 211 150 188 210 214 205 195 272 252 236 226 207 211 215 200 227
168 167 160 164 178 165 132 147 179 140 186 145 152 207 210 154 138 187 214 203 162 158 183 77 156 152 167 155 155 131 190 214 208 276 256 271 254 215 222 233 192 203 190
155 150 169 90 170 79 153 171 95 124 105 191 179 183 220 220 171 196 209 200 193 158 134 114 76 158 190 128 181 181 200 225 211 161 287 253 235 250 221 230 256 220 213
170 169 159 110 164 171 187 185 167 175 99 187 201 198 201 184 196 187 156 190 206 193 192 75 133 182 186 193 202 200 209 225 213 318 296 268 262 248 232 236 268 259 248
159 95 164 88 184 190 158 158 119 154 80 180 198 191 189 128 220 212 130 210 142 200 203 178 90 196 193 191 172 194 219 218 219 238 298 272 253 249 236 235 240 241 237
91 174 189 187 171 207 180 172 173 107 197 202 173 100 94 199 111 173 207 120 194 183 189 189 189 190 210 215 186 223 227 236 236 270 294 271 253 241 241 234 235 228 233
192 105 170 71 160 177 189 183 193 248 184 162 183 210 196 191 190 199 85 171 186 191 180 188 187 202 218 201 201 244 166 267 239 309 287 262 259 239 247 223 239 224 228
182 170 190 187 226 221 199 221 184 177 201 170 209 194 157 162 163 170 195 197 192 188 188 186 197 188 201 211 226 220 274 264 329 310 281 263 258 242 231 232 245 230 228
187 181 234 208 173 163 174 170 208 205 176 171 192 195 185 186 189 192 184 191 179 192 216 210 213 222 180 210 228 176 242 233 332 305 281 264 261 235 246 236 240 234 227
238 183 185 199 203 210 203 189 166 164 187 197 183 193 178 189 193 190 140 180 192 198 190 188 208 142 125 223 216 280 266 360 348 247 288 266 261 255 225 248 228 236 226
211 178 192 192 171 183 163 189 182 185 205 195 171 193 194 190 180 194 175 176 200 204 175 207 213 216 209 220 256 349 414 325 313 301 270 261 272 239 232 246 261 238 241
174 184 183 152 174 193 187 178 179 184 181 199 196 187 202 191 219 227 203 203 199 201 207 204 227 211 216 220 368 396 242 266 323 291 272 262 247 248 240 237 240 240 223
179 181 198 199 189 189 208 199 193 201 198 192 196 190 187 204 200 192 220 191 190 212 226 204 228 246 230 341 398 262 318 349 322 316 302 262 253 250 253 251 242 218 230
195 202 199 208 193 191 190 190 190 200 148 204 218 229 232 234 207 237 226 233 236 229 247 333 286 384 236 364 270 250 354 339 333 334 303 289 275 266 259 260 245 225 225
194 187 192 195 200 183 196 208 214 174 226 216 210 240 233 206 240 246 251 267 238 264 389 414 422 392 398 266 268 376 355 330 314 326 309 289 275 271 265 259 246 229 240
181 199 202 239 230 241 251 263 269 238 242 232 201 242 230 228 228 298 367 278 425 366 460 451 442 363 260 314 365 342 337 317 300 318 303 288 282 278 260 250 250 231 231
322 261 195 294 212 212 227 246 215 233 332 246 237 238 318 383 391 389 387 446 457 318 319 307 278 257 366 380 404 361 323 311 292 288 294 291 283 270 269 261 256 240 251
Wind_Speed
28 27 28 29 30 32 35 36 38 32 43 44 48 51 45 55 57 59 61 61 62 59 66 67 67 63 71 71 68 76 80 67 80 63 78 75 69 86 76 73 85 78 76
32 33 32 34 34 37 39 38 34 44 40 51 49 57 59 60 62 64 66 65 63 62 72 71 71 70 72 75 75 74 67 77 83 74 59 74 83 72 78 92 86 89 91
26 36 36 39 41 42 33 35 40 48 49 54 54 57 63 61 61 66 59 68 70 71 72 70 74 74 77 79 77 64 84 74 84 91 90 82 80 83 78 93 77 80 80
30 43 40 42 47 48 48 48 52 55 57 58 61 57 58 59 61 68 69 72 71 70 76 80 78 68 82 70 79 86 77 89 90 74 78 74 94 97 96 99 101 99 97
42 44 46 48 50 50 54 55 57 58 53 59 62 65 66 67 69 68 75 74 77 79 78 69 79 71 83 85 73 82 69 72 96 84 99 91 93 99 99 103 105 103 101
35 49 49 51 46 56 55 58 61 63 51 65 63 71 71 66 76 71 70 62 75 78 74 45 86 78 79 41 93 92 94 90 58 52 101 101 103 103 101 98 106 103 106
52 56 43 61 57 53 60 67 68 46 53 66 75 75 73 81 82 77 83 69 60 78 77 93 91 89 88 71 91 84 46 73 82 52 77 99 87 87 104 105 102 99 110
56 61 60 62 63 55 70 72 73 58 63 77 71 85 83 64 77 84 86 72 72 82 88 46 89 83 79 35 83 81 81 82 89 88 88 91 92 101 101 100 98 96 98
63 60 46 67 68 58 72 74 77 75 50 86 87 84 81 86 64 91 69 86 91 79 96 70 80 79 77 89 83 73 78 89 81 93 86 102 64 97 89 96 94 90 92
57 54 64 73 75 68 79 82 70 88 84 63 80 70 63 85 88 81 83 33 88 71 90 85 54 53 59 90 73 75 101 100 91 94 96 96 94 90 85 88 90 84 91
73 72 71 67 80 76 62 65 89 68 88 71 74 87 87 70 65 76 89 84 70 72 83 36 70 77 68 77 69 67 93 102 100 96 92 90 95 80 84 88 81 84 82
68 63 81 44 82 23 70 87 48 66 48 97 91 103 93 92 87 80 83 82 87 80 71 53 43 69 92 65 93 71 99 107 106 82 89 89 85 89 79 84 81 82 84
83 84 81 55 82 76 86 81 79 91 45 78 85 104 101 105 92 88 77 87 85 87 88 46 70 94 94 103 107 107 115 113 108 84 84 82 83 81 79 77 72 69 68
73 34 85 35 99 94 77 82 54 81 23 102 96 98 82 56 81 83 61 86 65 89 91 82 53 102 104 100 95 102 115 115 114 72 76 76 75 76 75 71 66 67 64
26 81 95 97 85 93 98 98 90 47 70 98 71 42 48 82 58 83 88 58 89 82 94 98 100 99 110 106 93 116 117 113 112 72 72 72 69 70 68 64 64 70 66
80 42 99 19 85 103 105 108 107 90 89 80 80 83 87 85 84 88 54 74 96 95 87 99 90 106 105 113 119 115 71 107 110 69 66 69 68 63 65 63 59 67 72
99 101 97 101 95 94 86 96 87 88 90 87 82 87 81 89 81 77 93 97 99 100 102 102 112 100 118 117 119 118 112 101 74 66 65 65 65 61 62 60 58 64 68
97 72 94 91 89 90 89 90 83 85 80 82 93 91 80 86 90 95 89 99 86 92 108 110 106 109 87 124 123 93 116 103 67 65 65 62 65 61 60 63 56 61 65
99 91 92 82 81 81 83 89 83 86 90 94 89 94 75 93 98 99 68 93 110 108 105 110 118 78 66 115 120 111 106 68 62 82 63 61 63 59 62 61 62 63 66
84 77 91 91 88 93 80 96 96 97 95 94 78 99 100 96 91 107 82 100 108 112 83 113 118 120 121 120 118 87 71 67 65 61 65 62 65 64 64 67 59 61 63
85 93 93 76 83 99 100 91 91 91 89 95 101 97 105 104 113 114 112 115 111 113 117 118 116 120 119 116 78 67 90 80 57 63 64 65 65 68 70 68 62 55 62
95 96 97 102 102 95 103 106 106 105 106 100 105 93 97 114 112 106 117 100 98 111 114 106 102 117 117 79 63 87 69 63 57 59 64 66 67 70 72 72 61 57 62
107 105 105 108 108 105 103 105 100 111 79 109 115 124 122 119 118 121 121 120 118 115 116 105 102 67 104 67 83 87 59 56 57 58 65 69 70 72 70 67 62 59 65
108 104 110 114 114 92 109 121 118 78 120 116 119 125 122 109 124 125 125 123 118 110 81 69 61 59 55 80 79 58 56 55 58 56 59 65 69 71 66 64 60 62 66
97 105 104 133 128 129 135 141 143 121 122 119 102 126 122 123 122 111 92 115 70 82 61 60 57 56 76 65 58 53 51 54 53 47 52 59 65 64 60 58 60 58 60
94 115 109 118 120 122 129 130 118 127 105 128 125 125 107 91 86 82 76 59 54 78 76 73 65 74 48 48 51 52 45 52 50 50 44 52 58 57 54 55 58 57 63
Wind_Direction
251 252 256 259 266 280 293 287 287 301 288 290 287 287 294 286 287 287 289 288 291 296 292 294 300 305 301 304 303 309 309 311 314 308 319 315 312 319 304 299 320 312 314
254 261 274 289 291 291 285 290 295 286 296 280 287 283 285 287 288 288 288 292 300 302 300 298 299 302 305 304 308 307 305 312 307 314 308 313 309 299 317 314 313 319 319
277 279 285 282 280 273 289 291 291 285 286 282 285 285 281 286 292 285 301 288 289 294 294 298 301 307 309 308 313 305 309 310 307 310 311 315 306 316 310 312 310 310 306
278 270 272 275 273 273 275 281 281 282 283 280 280 294 296 299 296 286 291 293 294 297 300 297 299 307 303 302 304 303 299 305 304 304 307 311 305 314 309 308 308 306 306
274 273 274 274 278 284 281 283 277 278 295 281 283 286 287 283 287 288 292 292 292 294 296 308 298 300 308 308 305 298 307 309 309 302 305 310 298 304 310 308 305 304 305
283 274 278 276 284 276 282 281 283 287 292 288 288 293 291 292 294 294 295 300 295 295 303 302 304 309 293 310 305 305 303 301 307 310 301 302 301 302 297 300 303 302 303
277 274 284 274 281 287 284 289 290 291 287 291 291 290 293 292 292 294 296 295 295 292 303 297 297 299 307 297 298 296 304 300 297 302 303 293 303 308 295 296 301 307 302
276 275 279 283 284 283 287 289 290 286 291 291 297 295 293 288 295 294 297 288 288 299 296 304 307 299 308 322 307 304 304 300 303 297 305 296 306 294 293 293 294 296 300
275 284 290 287 288 291 290 294 292 293 285 290 292 289 290 292 285 299 298 306 305 298 302 294 299 300 302 306 312 302 308 302 305 305 302 295 307 296 301 294 295 296 298
277 285 291 288 285 286 285 285 293 288 288 287 289 289 293 289 304 290 297 297 294 295 301 302 302 299 307 308 302 311 312 311 305 307 295 293 295 294 294 294 296 299 294
280 283 286 289 283 286 285 284 285 288 292 293 288 291 292 292 302 294 296 298 299 300 308 289 307 297 304 304 315 315 313 309 308 301 297 291 290 297 297 296 294 293 297
293 297 284 287 289 303 281 289 285 293 298 287 295 300 293 294 306 300 300 302 301 305 291 299 298 309 316 305 310 306 314 305 311 305 292 293 294 291 297 297 290 294 294
284 287 289 292 297 289 285 285 290 297 298 292 292 297 293 296 296 298 305 299 304 304 302 300 310 311 316 313 310 313 311 306 312 292 289 289 289 290 292 296 289 290 290
298 300 294 298 281 281 294 290 288 296 301 294 294 295 295 297 296 298 300 301 301 302 301 310 300 307 311 307 303 311 305 309 309 297 287 287 289 290 293 294 290 292 291
294 276 274 277 292 279 286 296 283 289 288 285 285 290 290 297 296 298 302 294 305 308 306 306 308 309 304 303 307 303 303 304 306 293 285 284 287 290 290 290 288 290 284
279 290 290 293 282 289 283 290 284 285 287 292 293 291 291 292 298 300 292 301 306 302 308 306 298 303 302 307 308 303 301 304 305 286 283 283 284 287 284 287 282 288 284
277 287 281 280 284 283 283 282 279 284 286 289 289 288 294 289 290 297 299 297 298 304 304 307 302 307 303 300 299 301 302 302 288 284 280 279 279 282 286 284 272 281 282
281 284 286 280 283 288 282 286 285 285 291 290 287 291 298 300 299 299 303 300 304 296 293 292 298 294 301 300 297 302 298 302 281 278 277 276 275 281 275 281 278 275 277
283 273 278 278 280 281 280 282 291 289 286 287 297 295 299 301 297 298 290 302 298 295 299 298 292 291 298 295 300 303 296 279 274 291 273 273 270 267 282 268 281 274 278
281 285 280 281 283 281 285 281 283 287 285 288 298 292 291 296 301 295 297 294 292 290 300 290 289 289 295 293 298 290 270 283 277 270 274 271 262 274 276 265 267 273 276
284 279 280 286 287 278 280 289 293 294 298 292 290 299 290 298 288 286 287 288 293 294 291 293 292 293 293 295 285 269 293 289 267 266 268 267 269 266 269 273 272 274 278
283 283 283 279 284 289 287 286 289 286 289 295 293 293 300 287 291 297 283 294 297 290 286 293 291 288 289 283 265 290 280 265 265 254 252 264 266 266 262 263 265 275 270
277 278 282 284 286 290 293 293 295 290 286 289 284 286 288 288 288 285 284 285 286 288 288 292 291 281 289 278 287 292 266 260 259 249 247 250 254 258 260 260 262 267 268
281 290 287 287 285 295 288 287 284 290 282 284 289 287 285 292 286 287 288 289 288 290 286 281 278 276 270 287 288 253 256 256 260 253 246 248 252 254 258 257 259 264 264
283 287 289 285 283 286 285 284 284 284 281 283 286 283 285 287 289 289 290 288 284 285 274 273 272 278 286 277 261 261 252 251 260 253 247 246 249 255 257 257 259 265 271
291 287 297 284 292 295 289 282 290 288 290 283 285 287 290 291 291 290 288 283 280 288 287 286 289 288 264 262 257 252 248 244 254 255 249 247 249 254 258 257 258 265 269